• In Schweiz
  • Länderverzeichnis
  • Für 7 Tage
  • Wassertemperatur
  • Satellitenkarten
  • Wetterkarte
  • Widgets
  • user-avatar
    Anmelden

    Stündliche Wetter Beverly

    Heute, 21 Oktober, Sonntag

    Zeit Temperatur Niederschläge Wind Luftdruck Luftfeuchtigkeit
    00:00 +12°C° 0 mm 3 m/S 770 mmHg 92%
    01:00 +12°C° 0 mm 3 m/S 769 mmHg 92%
    02:00 +11°C° 0 mm 3 m/S 769 mmHg 92%
    03:00 +11°C° 0 mm 4 m/S 769 mmHg 93%
    04:00 +11°C° 0 mm 4 m/S 768 mmHg 93%
    05:00 +11°C° 0 mm 4 m/S 768 mmHg 93%
    06:00 +11°C° 0 mm 3 m/S 768 mmHg 93%
    07:00 +12°C° 0 mm 4 m/S 768 mmHg 90%
    08:00 +13°C° 0 mm 4 m/S 768 mmHg 87%
    09:00 +13°C° 0 mm 5 m/S 767 mmHg 84%
    10:00 +14°C° 0 mm 5 m/S 767 mmHg 82%
    11:00 +15°C° 0 mm 5 m/S 767 mmHg 79%
    12:00 +16°C° 0 mm 5 m/S 767 mmHg 76%
    13:00 +16°C° 0 mm 5 m/S 767 mmHg 78%
    14:00 +16°C° 0 mm 5 m/S 767 mmHg 79%
    15:00 +16°C° 0 mm 5 m/S 768 mmHg 81%
    16:00 +15°C° 0 mm 5 m/S 768 mmHg 80%
    17:00 +14°C° 0 mm 6 m/S 769 mmHg 80%
    18:00 +11°C° 0 mm 6 m/S 769 mmHg 79%
    19:00 +11°C° 0 mm 7 m/S 770 mmHg 79%
    20:00 +10°C° 0 mm 7 m/S 771 mmHg 78%
    21:00 +9°C° 0 mm 7 m/S 772 mmHg 77%
    22:00 +8°C° 0 mm 7 m/S 773 mmHg 77%
    23:00 +8°C° 0 mm 7 m/S 773 mmHg 76%

    Morgen, 22 Oktober, Montag

    Zeit Temperatur Niederschläge Wind Luftdruck Luftfeuchtigkeit
    00:00 +7°C° 0 mm 6 m/S 774 mmHg 75%
    01:00 +7°C° 0 mm 6 m/S 774 mmHg 75%
    02:00 +5°C° 0 mm 6 m/S 775 mmHg 75%
    03:00 +5°C° 0 mm 6 m/S 775 mmHg 75%
    04:00 +5°C° 0 mm 6 m/S 775 mmHg 75%
    05:00 +5°C° 0 mm 6 m/S 776 mmHg 75%
    06:00 +4°C° 0 mm 6 m/S 776 mmHg 75%
    07:00 +5°C° 0 mm 6 m/S 777 mmHg 71%
    08:00 +7°C° 0 mm 6 m/S 777 mmHg 67%
    09:00 +7°C° 0 mm 6 m/S 778 mmHg 63%
    10:00 +8°C° 0 mm 6 m/S 778 mmHg 60%
    11:00 +9°C° 0 mm 5 m/S 778 mmHg 57%
    12:00 +10°C° 0 mm 5 m/S 777 mmHg 55%
    13:00 +12°C° 0 mm 5 m/S 777 mmHg 57%
    14:00 +12°C° 0 mm 5 m/S 777 mmHg 59%
    15:00 +12°C° 0 mm 5 m/S 777 mmHg 61%
    16:00 +10°C° 0 mm 6 m/S 776 mmHg 66%
    17:00 +9°C° 0 mm 6 m/S 776 mmHg 70%
    18:00 +8°C° 0 mm 7 m/S 776 mmHg 75%
    19:00 +8°C° 0 mm 7 m/S 776 mmHg 77%
    20:00 +8°C° 0 mm 7 m/S 775 mmHg 79%
    21:00 +8°C° 0 mm 7 m/S 775 mmHg 81%
    22:00 +7°C° 0 mm 8 m/S 775 mmHg 81%
    23:00 +7°C° 0 mm 8 m/S 774 mmHg 82%

    übermorgen, 23 Oktober, Dienstag

    Zeit Temperatur Niederschläge Wind Luftdruck Luftfeuchtigkeit
    00:00 +7°C° 0 mm 8 m/S 774 mmHg 82%
    01:00 +7°C° 0 mm 8 m/S 773 mmHg 82%
    02:00 +7°C° 0 mm 8 m/S 773 mmHg 83%
    03:00 +7°C° 0 mm 8 m/S 773 mmHg 83%
    04:00 +7°C° 0 mm 8 m/S 772 mmHg 82%
    05:00 +7°C° 0 mm 8 m/S 772 mmHg 82%
    06:00 +7°C° 0 mm 8 m/S 771 mmHg 82%
    07:00 +9°C° 0 mm 8 m/S 771 mmHg 77%
    08:00 +10°C° 0 mm 9 m/S 771 mmHg 73%
    09:00 +11°C° 0 mm 10 m/S 771 mmHg 68%
    10:00 +12°C° 0 mm 10 m/S 770 mmHg 66%
    11:00 +13°C° 0 mm 10 m/S 770 mmHg 63%
    12:00 +14°C° 0 mm 10 m/S 770 mmHg 61%
    13:00 +15°C° 0 mm 9 m/S 770 mmHg 64%
    14:00 +15°C° 0 mm 9 m/S 770 mmHg 66%
    15:00 +15°C° 0 mm 9 m/S 769 mmHg 69%
    16:00 +13°C° 0 mm 9 m/S 769 mmHg 72%
    17:00 +13°C° 0 mm 8 m/S 769 mmHg 75%
    18:00 +12°C° 0 mm 8 m/S 769 mmHg 79%
    19:00 +12°C° 0 mm 8 m/S 770 mmHg 80%
    20:00 +12°C° 0 mm 8 m/S 770 mmHg 82%
    21:00 +12°C° 0 mm 8 m/S 770 mmHg 83%
    22:00 +12°C° 0 mm 8 m/S 770 mmHg 84%
    23:00 +12°C° 0 mm 7 m/S 770 mmHg 84%

    24 Oktober, Mittwoch

    Zeit Temperatur Niederschläge Wind Luftdruck Luftfeuchtigkeit
    00:00 +12°C° 0 mm 7 m/S 770 mmHg 85%
    01:00 +12°C° 0 mm 7 m/S 770 mmHg 86%
    02:00 +12°C° 0 mm 7 m/S 770 mmHg 86%
    03:00 +11°C° 0 mm 7 m/S 770 mmHg 87%
    04:00 +11°C° 0 mm 6 m/S 770 mmHg 88%
    05:00 +11°C° 0 mm 6 m/S 770 mmHg 88%
    06:00 +11°C° 0 mm 6 m/S 770 mmHg 88%
    07:00 +11°C° 0 mm 6 m/S 770 mmHg 86%
    08:00 +11°C° 0 mm 6 m/S 771 mmHg 83%
    09:00 +13°C° 0 mm 6 m/S 771 mmHg 80%
    10:00 +14°C° 0 mm 6 m/S 771 mmHg 75%
    11:00 +15°C° 0 mm 5 m/S 771 mmHg 71%
    12:00 +15°C° 0 mm 5 m/S 771 mmHg 66%
    13:00 +15°C° 0 mm 5 m/S 770 mmHg 66%
    14:00 +15°C° 0 mm 4 m/S 770 mmHg 66%
    15:00 +15°C° 0 mm 4 m/S 769 mmHg 66%
    16:00 +13°C° 0 mm 4 m/S 769 mmHg 70%
    17:00 +12°C° 0 mm 4 m/S 769 mmHg 75%
    18:00 +11°C° 0 mm 4 m/S 769 mmHg 79%
    19:00 +10°C° 0 mm 4 m/S 769 mmHg 81%
    20:00 +10°C° 0 mm 4 m/S 769 mmHg 83%
    21:00 +8°C° 0 mm 4 m/S 769 mmHg 85%
    22:00 +8°C° 0 mm 4 m/S 769 mmHg 86%
    23:00 +7°C° 0 mm 4 m/S 769 mmHg 87%

    25 Oktober, Donnerstag

    Zeit Temperatur Niederschläge Wind Luftdruck Luftfeuchtigkeit
    00:00 +7°C° 0 mm 4 m/S 768 mmHg 88%
    01:00 +7°C° 0 mm 4 m/S 768 mmHg 89%
    02:00 +7°C° 0 mm 4 m/S 768 mmHg 89%
    03:00 +6°C° 0 mm 4 m/S 767 mmHg 90%
    04:00 +6°C° 0 mm 4 m/S 767 mmHg 90%
    05:00 +6°C° 0 mm 4 m/S 767 mmHg 90%
    06:00 +6°C° 0 mm 4 m/S 766 mmHg 90%
    07:00 +6°C° 0 mm 4 m/S 766 mmHg 86%
    08:00 +7°C° 0 mm 4 m/S 766 mmHg 83%
    09:00 +8°C° 0 mm 4 m/S 766 mmHg 80%
    10:00 +10°C° 0 mm 4 m/S 766 mmHg 75%
    11:00 +11°C° 0 mm 4 m/S 765 mmHg 70%
    12:00 +12°C° 0 mm 3 m/S 765 mmHg 64%
    13:00 +12°C° 0 mm 3 m/S 764 mmHg 65%
    14:00 +13°C° 0 mm 3 m/S 764 mmHg 65%
    15:00 +13°C° 0 mm 3 m/S 763 mmHg 66%
    16:00 +11°C° 0 mm 4 m/S 762 mmHg 71%
    17:00 +10°C° 0 mm 4 m/S 762 mmHg 77%
    18:00 +8°C° 0 mm 4 m/S 762 mmHg 82%
    19:00 +7°C° 0 mm 4 m/S 761 mmHg 83%
    20:00 +7°C° 0 mm 5 m/S 761 mmHg 84%
    21:00 +7°C° 0 mm 5 m/S 760 mmHg 85%
    22:00 +7°C° 0 mm 5 m/S 760 mmHg 85%
    23:00 +7°C° 0 mm 5 m/S 759 mmHg 86%

    26 Oktober, Freitag

    Zeit Temperatur Niederschläge Wind Luftdruck Luftfeuchtigkeit
    00:00 +6°C° 0 mm 5 m/S 758 mmHg 87%
    01:00 +7°C° 0 mm 5 m/S 758 mmHg 87%
    02:00 +7°C° 0 mm 6 m/S 757 mmHg 86%
    03:00 +7°C° 0 mm 6 m/S 756 mmHg 86%
    04:00 +7°C° 0 mm 6 m/S 756 mmHg 86%
    05:00 +7°C° 0 mm 6 m/S 756 mmHg 86%
    06:00 +6°C° 0 mm 7 m/S 756 mmHg 86%
    07:00 +6°C° 0.1 mm 7 m/S 756 mmHg 81%
    08:00 +6°C° 0.1 mm 8 m/S 756 mmHg 76%
    09:00 +6°C° 0.1 mm 9 m/S 757 mmHg 71%
    10:00 +6°C° 0 mm 9 m/S 757 mmHg 66%
    11:00 +7°C° 0 mm 9 m/S 757 mmHg 61%
    12:00 +7°C° 0 mm 8 m/S 757 mmHg 56%
    13:00 +7°C° 0 mm 9 m/S 757 mmHg 56%
    14:00 +7°C° 0 mm 9 m/S 757 mmHg 56%
    15:00 +7°C° 0 mm 9 m/S 757 mmHg 56%
    16:00 +6°C° 0.1 mm 9 m/S 757 mmHg 58%
    17:00 +5°C° 0.1 mm 8 m/S 758 mmHg 59%
    18:00 +4°C° 0.1 mm 8 m/S 758 mmHg 61%
    19:00 +2°C° 0.1 mm 8 m/S 758 mmHg 60%
    20:00 +2°C° 0.1 mm 8 m/S 757 mmHg 60%
    21:00 +2°C° 0.1 mm 8 m/S 757 mmHg 59%
    22:00 +1°C° 0 mm 8 m/S 757 mmHg 59%
    23:00 +1°C° 0 mm 8 m/S 757 mmHg 60%
    Mehr zeigen